Brindisi Salento Airport


Codes: LIBR/BDS
Name: Brindisi Salento Airport
City: Brindisi
Country: Italy
Elevation: 47 ft.
Website:
Wikipedia:

Photos at Brindisi Salento Airport


   Photos courtesy of SpottingLog. You can add your own sightings and photos by signing up for a free trial today.



MM62321, 20-Mar-2023
© Tobias Hottinger

MM62311, 11-Feb-2023
© Tobias Hottinger


Weather at Brindisi Salento Airport


Time (UTC)DescriptionTempratureWindCloud coverageVisibilityPressureHumidity
13-Jun-2024 03:00Scattered Clouds23°C9 mph, NW33%10000m1012hPa82%
13-Jun-2024 06:00Broken Clouds24°C7 mph, NW66%10000m1013hPa74%
13-Jun-2024 09:00Clear Sky26°C11 mph, N1%10000m1014hPa63%
13-Jun-2024 12:00Clear Sky27°C13 mph, NE3%10000m1014hPa58%
13-Jun-2024 15:00Scattered Clouds27°C13 mph, E43%10000m1013hPa56%
13-Jun-2024 18:00Scattered Clouds25°C9 mph, E34%10000m1013hPa69%
13-Jun-2024 21:00Broken Clouds24°C4 mph, E64%10000m1013hPa73%
14-Jun-2024 00:00Light Rain22°C25 mph, NW81%10000m1015hPa82%
14-Jun-2024 03:00Clear Sky21°C20 mph, NW9%10000m1015hPa76%
14-Jun-2024 06:00Clear Sky22°C25 mph, NW6%10000m1016hPa66%
14-Jun-2024 09:00Clear Sky23°C22 mph, NW0%10000m1017hPa63%
14-Jun-2024 12:00Clear Sky24°C20 mph, NW4%10000m1017hPa58%
14-Jun-2024 15:00Broken Clouds23°C18 mph, N51%10000m1016hPa61%
14-Jun-2024 18:00Scattered Clouds22°C9 mph, N50%10000m1016hPa68%
14-Jun-2024 21:00Clear Sky21°C11 mph, NW10%10000m1017hPa71%
15-Jun-2024 00:00Few Clouds21°C13 mph, NW13%10000m1016hPa72%
15-Jun-2024 03:00Clear Sky21°C11 mph, N6%10000m1015hPa73%
15-Jun-2024 06:00Clear Sky23°C11 mph, N4%10000m1015hPa62%
15-Jun-2024 09:00Clear Sky24°C11 mph, N1%10000m1015hPa57%
15-Jun-2024 12:00Clear Sky25°C13 mph, N1%10000m1015hPa55%
15-Jun-2024 15:00Clear Sky24°C9 mph, NE0%10000m1015hPa57%
15-Jun-2024 18:00Clear Sky23°C2 mph, N0%10000m1014hPa63%
15-Jun-2024 21:00Overcast Clouds23°C2 mph, W97%10000m1015hPa62%
16-Jun-2024 00:00Overcast Clouds22°C2 mph, SW88%10000m1014hPa58%
16-Jun-2024 03:00Broken Clouds22°C4 mph, SE62%10000m1013hPa59%
16-Jun-2024 06:00Broken Clouds24°C2 mph, E66%10000m1014hPa55%
16-Jun-2024 09:00Overcast Clouds26°C7 mph, E100%10000m1014hPa46%
16-Jun-2024 12:00Overcast Clouds28°C13 mph, E97%10000m1013hPa48%
16-Jun-2024 15:00Overcast Clouds28°C11 mph, SE92%10000m1014hPa48%
16-Jun-2024 18:00Overcast Clouds26°C9 mph, SE94%10000m1014hPa56%
16-Jun-2024 21:00Overcast Clouds25°C7 mph, SW98%10000m1015hPa53%
17-Jun-2024 00:00Overcast Clouds24°C4 mph, SW94%10000m1015hPa52%
17-Jun-2024 03:00Overcast Clouds24°C7 mph, NW100%10000m1015hPa53%
17-Jun-2024 06:00Broken Clouds25°C11 mph, NW76%10000m1016hPa70%
17-Jun-2024 09:00Broken Clouds27°C11 mph, NW54%10000m1016hPa59%
17-Jun-2024 12:00Broken Clouds27°C11 mph, N67%10000m1016hPa57%
17-Jun-2024 15:00Scattered Clouds27°C11 mph, N30%10000m1016hPa58%
17-Jun-2024 18:00Broken Clouds25°C9 mph, N59%10000m1016hPa66%
17-Jun-2024 21:00Few Clouds24°C11 mph, N14%10000m1017hPa70%
18-Jun-2024 00:00Few Clouds24°C11 mph, NW11%10000m1016hPa72%